sat.trackr.live / text

‹ back to catalog

ONEWEB-0566

NORAD 56061 · 2023-043R

PAYLOAD ACTIVE UNKNOWN

§ Identity

Operator
Country
UK
Launch date
2023-03-26
Launch site
SRILR
Launch vehicle
Mass (kg)
RCS (m²)

Purposes: comms

External: N2YO · Heavens-Above · Gunter

§ Orbital elements

Epoch: 2026-09-20T04:44:24.427680Z

Period
108.94 min
Inclination
87.9287°
Eccentricity
0.0001906
Mean motion
13.21826603 rev/d
Perigee alt
1,176.3 km
Apogee alt
1,179.2 km
Semi-major
7,555.9 km
B*
-5.8081e-5
RAAN
225.0621°
Arg perigee
70.9685°
Mean anomaly
289.1655°
Rev number
17,078

§ Raw data

ONEWEB-05661 56061U 23043R   26263.19750495 -.00000011  00000+0 -58081-4 0  99982 56061  87.9287 225.0621 0001906  70.9685 289.1655 13.21826603170781

JSON: /api/v1/satellites/56061 · /tle

For live sub-satellite position, see the globe view (requires WebGL).

§ Visibility from observer

Set your observer location to see the next 7 days of passes ≥ 10°. The values pass through the URL so the page stays shareable.

No JS? Fill the form by hand. The geolocation button needs JavaScript.